Regional Weather Roundup
Issued by NWS Charleston, SC

Current Version | Previous Version | Text Only | Print | Product List | Glossary Off
Versions: 1 2 3 4 5 6 7 8 9 10 11 12 13 14 15 16 17 18 19 20 21 22 23 24 25 26 27 28 29 30 31 32 33 34 35 36 37 38 39 40 41 42 43 44 45 46 47 48 49 50

000
ASUS42 KCHS 140728
RWRCHS

REGIONAL WEATHER ROUNDUP
NATIONAL WEATHER SERVICE CHARLESTON SC
200 AM EST SUN FEB 14 2016

NOTE: "FAIR" INDICATES FEW OR NO CLOUDS BELOW 12,000 FEET WITH NO
SIGNIFICANT WEATHER AND/OR OBSTRUCTIONS TO VISIBILITY.

NOT ALL STATIONS ARE QUALITY CONTROLLED BY THE NATIONAL
WEATHER SERVICE. USE DATA WITH CAUTION...ESPECIALLY
DEWPOINT OBSERVATIONS.

SCZ027-030-031-034>040-042>050-140800-
...SOUTHEAST SOUTH CAROLINA...

CITY           SKY/WX    TMP DP  RH WIND       PRES   REMARKS
N CHARLESTON   CLEAR     32  11  41 NE15      30.38S WCI  22
WATERFRONT PRK   N/A     36  24  62 NE15      30.22S WCI  27
MOUNT PLEASANT FAIR      32  14  47 N7        30.39S WCI  26
JOHNS ISLAND   FAIR      34  18  51 N13       30.37S WCI  25
PINOPOLIS        N/A     34  14  44 NE14      30.32R WCI  24
MONCKS CORNER  FAIR      28   9  43 NE5       30.41R WCI  23
SUMMERVILLE    FAIR      32  12  43 NE6       30.41R WCI  26
BEAUFORT MCAS  CLEAR     37  16  42 NE14      30.36R WCI  28
BEAUFORT ARPT  FAIR      37  23  56 NE15      30.36R WCI  28
HILTON HEAD IS CLEAR     39  30  70 N8        30.36S WCI  34
WALTERBORO     SUNNY     32  19  59 NE6       30.40R WCI  26
ALLENDALE      FAIR      32  16  51 CALM      30.38R

...SOUTHERN MIDLANDS AND PEE DEE...

CITY           SKY/WX    TMP DP  RH WIND       PRES   REMARKS
GEORGETOWN     FAIR      30   7  37 NE9       30.41S WCI  22
KINGSTREE      FAIR      28   7  40 N3        30.42R
ORANGEBURG     CLEAR     30   8  39 NE8       30.39S WCI  22
BARNWELL       FAIR      32  16  51 NE7       30.39R WCI  26
AIKEN          FAIR      28  10  47 NE6       30.41R WCI  22
MANNING        FAIR      28   7  40 N5        30.41R WCI  23
COLUMBIA       CLEAR     30   3  31 NE8       30.41R WCI  22
SUMTER         CLEAR     26   6  44 NE8       30.39S WCI  17
FLORENCE       CLEAR     26   5  40 NE12      30.42S WCI  16
MYRTLE BEACH   CLEAR     27   7  43 N7        30.43S WCI  19
N MYRTLE BEACH CLEAR     27   9  46 NE12      30.41S WCI  17

$$

GAZ063-065-086>088-099>101-113>116-118-119-134>141-150-140800-
...SOUTHEAST GEORGIA...

CITY           SKY/WX    TMP DP  RH WIND       PRES   REMARKS
SAVANNAH ARPT  CLEAR     34  21  59 NE5       30.35S WCI  30
HUNTER AAF     CLEAR     38  22  53 NE3       30.31S
FORT STEWART   PTCLDY    33  25  74 CALM      30.32R
STATESBORO     CLEAR     34  24  67 CALM      30.36R
SYLVANIA       SUNNY     35  24  65 E6        30.37R WCI  29
CLAXTON        FAIR      31  29  94 CALM      30.35S

...CSRA...CENTRAL AND FAR SOUTHEAST GEORGIA...

CITY           SKY/WX    TMP DP  RH WIND       PRES   REMARKS
THOMSON        CLEAR     32  15  48 NE6       30.41S WCI  27
AUGUSTA-BUSH   PTCLDY    31  12  45 NE8       30.39R WCI  23
AUGUSTA-DANIEL CLEAR     33   8  35 NE10      30.37R WCI  25
SWAINSBORO     FAIR      30  23  74 NE3       30.35S
VIDALIA        CLEAR     34  19  55 N3        30.34S
EASTMAN        FAIR      28  21  72 CALM      30.38R
HAZLEHURST     FAIR      36  22  56 CALM      30.33S
ALMA           CLEAR     35  18  49 N5        30.33F WCI  31
WAYCROSS       CLEAR     39  23  53 N3        30.33S
JESUP          FAIR      41  23  48 N5        30.33F
BAXLEY         FAIR      36  21  55 N3        30.33S
BRUNSWICK      CLEAR     36  34  93 CALM      30.33F
SAINT SIMONS   CLEAR     38  36  92 CALM      30.32F

$$

SCZ027-028-034-036>038-045-046-048>050-GAZ119-141-140800-
...LAKE AND SUPPLEMENTAL COASTAL OBSERVATIONS...

STATION/POSITION TIME  TEMP    WIND        PRES    WAVE   SWELL
                       AIR SEA DIR/SP/G            HT/PER HT/PER/DIR
                 (UTC) (F)     (DEG/KT/KT) (MB)    (FT/S) (FT/S/D)
WINYAH BAY       0600   32      20/ 10     1028.0S
LAKE MURRAY      0600   30      50/  3/  6 1028.4F
ACE BASIN NERRS  0600   35      30/  3     1027.0
FORT PULASKI     0700   44 51   30/ 10/ 13 1027.4S
SAPELO ISLAND    0700   41        CALM     1027.0S

$$

ANZ835-935-AMZ111-154-330-350-352-354-370-450-454-472-140800-
...C-MAN AND BUOY OBSERVATIONS...

STATION/POSITION TIME  TEMP    WIND        PRES    WAVE   SWELL
                       AIR SEA DIR/SP/G            HT/PER HT/PER/DIR
                 (UTC) (F)     (DEG/KT/KT) (MB)    (FT/S) (FT/S/D)
BUOY 41004       0650   46 66   40/ 16/ 21 1027.0F   4/ 5   2/ 8
BUOY 41008       0650   49 53   60/  8/ 10 1026.8F   2/ 6   2/ 70/ 6
FOLLY BEACH CMAN 0700   37      20/ 17/ 19 1028.3R
CAPERS NEARSHORE 0608   41      40/ 19/ 25 1027.4F
FRIPP NEARSHORE  0600   45      60/ 17/ 19 1026.0F


STATION/POSITION TIME  TEMP    WIND        PRES    WAVE   SWELL
                       AIR SEA DIR/SP/G            HT/PER HT/PER/DIR
                 (UTC) (F)     (DEG/KT/KT) (MB)    (FT/S) (FT/S/D)
5E ST. MARYS GA  0651      55                N/A     2/ 6
FRYING PAN BUOY  0600   38 63  350/ 17/ 23 1029.0R
BUOY 41025       0650   31 72  360/ 21/ 25 1028.3S   5/ 8
CAPE LOOKOUT NC  NOT AVBL
BUOY 41002       0650   47 68  340/ 19/ 27   N/A     9/ 8
BUOY 41010       0620   61 72              1023.9F
ST AUGUSTINE FL  0700   52 57   20/ 12/ 16 1026.6F


$$



USA.gov is the U.S. government's official web portal to all federal, state and local government web resources and services.